Location: Grand Mazuras
(45.9128°N, 1.7636°E)
Time: 05:35:04
(UTC+00:00)

USA 215 - Pass Details

Date: 18 April 2021
Orbit: 1101 x 1107 km, 123.0° (Epoch: 14 May)

Event Time Altitude Azimuth Distance (km) Brightness Sun altitude
Exits shadow 22:32:58 31° 239° (WSW) 1,814 4.3 -30.2°
Drops below altitude 10° 22:38:17 10° 293° (WNW) 2,962 6.0 -30.6°
Sets 22:41:06 0° 304° (WNW) 3,923 6.9 -30.7°
